• In Czech Republic
  • List of Countries
  • For 7 days
  • Water Temperature
  • Satellite Maps
  • Weather Map
  • Weather Widgets
  • user-avatar
    Login

    Hourly Weather Rangpur

    Today, 21 May, Monday

    Time Temperature Precipitation Wind Pressure Humidity
    00:00 +30°C° 0 mm 3 mps 751 mmHg 63%
    01:00 +30°C° 0.2 mm 3 mps 751 mmHg 68%
    02:00 +29°C° 0.2 mm 2 mps 750 mmHg 72%
    03:00 +29°C° 0.2 mm 2 mps 750 mmHg 76%
    04:00 +29°C° 0.5 mm 2 mps 750 mmHg 77%
    05:00 +29°C° 0.5 mm 2 mps 750 mmHg 78%
    06:00 +29°C° 0 mm 2 mps 751 mmHg 74%
    07:00 +29°C° 0 mm 2 mps 751 mmHg 74%
    08:00 +30°C° 0 mm 3 mps 751 mmHg 73%
    09:00 +30°C° 0 mm 3 mps 752 mmHg 72%
    10:00 +31°C° 0 mm 3 mps 751 mmHg 67%
    11:00 +34°C° 0 mm 3 mps 751 mmHg 62%
    12:00 +35°C° 0 mm 3 mps 751 mmHg 56%
    13:00 +35°C° 0 mm 3 mps 751 mmHg 54%
    14:00 +36°C° 0 mm 2 mps 751 mmHg 52%
    15:00 +36°C° 0 mm 2 mps 750 mmHg 50%
    16:00 +36°C° 0 mm 2 mps 750 mmHg 52%
    17:00 +36°C° 0 mm 2 mps 750 mmHg 54%
    18:00 +34°C° 0 mm 1 mps 750 mmHg 57%
    19:00 +33°C° 0 mm 1 mps 750 mmHg 59%
    20:00 +32°C° 0 mm 2 mps 750 mmHg 61%
    21:00 +31°C° 0 mm 2 mps 751 mmHg 63%
    22:00 +31°C° 0 mm 2 mps 751 mmHg 66%
    23:00 +30°C° 0 mm 3 mps 751 mmHg 69%

    Tomorrow, 22 May, Tuesday

    Time Temperature Precipitation Wind Pressure Humidity
    00:00 +30°C° 0 mm 3 mps 751 mmHg 72%
    01:00 +29°C° 0 mm 3 mps 751 mmHg 75%
    02:00 +29°C° 0 mm 3 mps 751 mmHg 77%
    03:00 +29°C° 0 mm 3 mps 750 mmHg 79%
    04:00 +29°C° 0 mm 3 mps 751 mmHg 80%
    05:00 +29°C° 0 mm 3 mps 751 mmHg 81%
    06:00 +28°C° 0 mm 3 mps 751 mmHg 82%
    07:00 +30°C° 0.1 mm 3 mps 752 mmHg 76%
    08:00 +31°C° 0.1 mm 3 mps 752 mmHg 70%
    09:00 +34°C° 0.1 mm 4 mps 752 mmHg 64%
    10:00 +35°C° 0.1 mm 3 mps 752 mmHg 60%
    11:00 +36°C° 0.1 mm 3 mps 752 mmHg 55%
    12:00 +37°C° 0.1 mm 3 mps 751 mmHg 50%
    13:00 +38°C° 0 mm 3 mps 751 mmHg 48%
    14:00 +38°C° 0 mm 3 mps 750 mmHg 47%
    15:00 +38°C° 0 mm 2 mps 750 mmHg 46%
    16:00 +38°C° 0 mm 2 mps 750 mmHg 49%
    17:00 +37°C° 0 mm 2 mps 750 mmHg 53%
    18:00 +36°C° 0 mm 3 mps 750 mmHg 57%
    19:00 +35°C° 0.1 mm 3 mps 750 mmHg 60%
    20:00 +34°C° 0.1 mm 3 mps 751 mmHg 64%
    21:00 +33°C° 0.1 mm 3 mps 751 mmHg 67%
    22:00 +33°C° 0.3 mm 3 mps 751 mmHg 69%
    23:00 +32°C° 0.3 mm 4 mps 751 mmHg 71%

    Day after tomorrow, 23 May, Wednesday

    Time Temperature Precipitation Wind Pressure Humidity
    00:00 +32°C° 0.3 mm 4 mps 751 mmHg 74%
    01:00 +30°C° 1.7 mm 4 mps 751 mmHg 77%
    02:00 +30°C° 1.7 mm 4 mps 751 mmHg 80%
    03:00 +29°C° 1.7 mm 4 mps 750 mmHg 83%
    04:00 +29°C° 1.6 mm 3 mps 751 mmHg 83%
    05:00 +29°C° 1.6 mm 3 mps 751 mmHg 84%
    06:00 +29°C° 1.6 mm 2 mps 751 mmHg 85%
    07:00 +29°C° 0.8 mm 3 mps 752 mmHg 83%
    08:00 +30°C° 0.8 mm 3 mps 752 mmHg 81%
    09:00 +30°C° 0.8 mm 4 mps 753 mmHg 79%
    10:00 +32°C° 0.1 mm 4 mps 753 mmHg 77%
    11:00 +33°C° 0.1 mm 4 mps 753 mmHg 74%
    12:00 +33°C° 0.1 mm 4 mps 753 mmHg 71%
    13:00 +34°C° 0 mm 4 mps 752 mmHg 68%
    14:00 +34°C° 0 mm 4 mps 751 mmHg 66%
    15:00 +35°C° 0 mm 4 mps 750 mmHg 64%
    16:00 +34°C° 0.1 mm 4 mps 750 mmHg 66%
    17:00 +34°C° 0.1 mm 4 mps 750 mmHg 68%
    18:00 +34°C° 0.1 mm 3 mps 749 mmHg 71%
    19:00 +33°C° 0.6 mm 3 mps 750 mmHg 74%
    20:00 +30°C° 0.6 mm 3 mps 750 mmHg 78%
    21:00 +29°C° 0.6 mm 3 mps 751 mmHg 82%
    22:00 +29°C° 1.4 mm 3 mps 751 mmHg 83%
    23:00 +28°C° 1.4 mm 3 mps 751 mmHg 85%

    24 May, Thursday

    Time Temperature Precipitation Wind Pressure Humidity
    00:00 +28°C° 1.4 mm 3 mps 751 mmHg 87%
    01:00 +28°C° 1.1 mm 3 mps 750 mmHg 88%
    02:00 +28°C° 1.1 mm 3 mps 750 mmHg 88%
    03:00 +27°C° 1.1 mm 3 mps 749 mmHg 89%
    04:00 +28°C° 2.1 mm 3 mps 749 mmHg 90%
    05:00 +28°C° 2.1 mm 3 mps 750 mmHg 90%
    06:00 +28°C° 2.1 mm 3 mps 750 mmHg 91%
    07:00 +28°C° 2 mm 4 mps 750 mmHg 89%
    08:00 +29°C° 2 mm 4 mps 751 mmHg 86%
    09:00 +29°C° 2 mm 5 mps 752 mmHg 84%
    10:00 +30°C° 0.5 mm 5 mps 751 mmHg 81%
    11:00 +32°C° 0.5 mm 5 mps 751 mmHg 77%
    12:00 +33°C° 0.5 mm 5 mps 751 mmHg 73%
    13:00 +34°C° 1.2 mm 5 mps 750 mmHg 71%
    14:00 +34°C° 1.2 mm 4 mps 750 mmHg 69%
    15:00 +35°C° 1.2 mm 4 mps 749 mmHg 67%
    16:00 +34°C° 0.6 mm 4 mps 749 mmHg 71%
    17:00 +33°C° 0.6 mm 5 mps 748 mmHg 76%
    18:00 +32°C° 0.6 mm 5 mps 748 mmHg 80%
    19:00 +30°C° 1.8 mm 5 mps 749 mmHg 83%
    20:00 +29°C° 1.8 mm 5 mps 749 mmHg 87%
    21:00 +28°C° 1.8 mm 5 mps 750 mmHg 90%
    22:00 +27°C° 4.1 mm 5 mps 750 mmHg 91%
    23:00 +27°C° 4.1 mm 5 mps 750 mmHg 92%

    25 May, Friday

    Time Temperature Precipitation Wind Pressure Humidity
    00:00 +27°C° 4.1 mm 4 mps 750 mmHg 93%
    01:00 +27°C° 2.1 mm 4 mps 750 mmHg 92%
    02:00 +28°C° 2.1 mm 4 mps 749 mmHg 91%
    03:00 +28°C° 2.1 mm 4 mps 749 mmHg 91%
    04:00 +28°C° 0.9 mm 4 mps 749 mmHg 91%
    05:00 +28°C° 0.9 mm 4 mps 749 mmHg 91%
    06:00 +28°C° 0.9 mm 4 mps 749 mmHg 91%
    07:00 +28°C° 0.3 mm 4 mps 750 mmHg 87%
    08:00 +29°C° 0.3 mm 4 mps 750 mmHg 84%
    09:00 +30°C° 0.3 mm 5 mps 751 mmHg 80%
    10:00 +32°C° 0.1 mm 4 mps 750 mmHg 77%
    11:00 +33°C° 0.1 mm 4 mps 750 mmHg 73%
    12:00 +34°C° 0.1 mm 4 mps 750 mmHg 70%
    13:00 +35°C° 0.2 mm 4 mps 749 mmHg 66%
    14:00 +36°C° 0.2 mm 4 mps 748 mmHg 63%
    15:00 +37°C° 0.2 mm 4 mps 748 mmHg 59%
    16:00 +36°C° 0.3 mm 4 mps 747 mmHg 63%
    17:00 +35°C° 0.3 mm 5 mps 747 mmHg 67%
    18:00 +34°C° 0.3 mm 5 mps 747 mmHg 71%
    19:00 +33°C° 0.4 mm 5 mps 748 mmHg 75%
    20:00 +32°C° 0.4 mm 5 mps 748 mmHg 79%
    21:00 +29°C° 0.4 mm 5 mps 749 mmHg 83%
    22:00 +29°C° 0.9 mm 5 mps 749 mmHg 84%
    23:00 +29°C° 0.9 mm 5 mps 749 mmHg 84%

    26 May, Saturday

    Time Temperature Precipitation Wind Pressure Humidity
    00:00 +29°C° 0.9 mm 5 mps 749 mmHg 85%
    01:00 +28°C° 1.1 mm 4 mps 749 mmHg 86%
    02:00 +28°C° 1.1 mm 4 mps 749 mmHg 86%
    03:00 +28°C° 1.1 mm 4 mps 748 mmHg 87%
    04:00 +28°C° 0.6 mm 4 mps 748 mmHg 87%
    05:00 +28°C° 0.6 mm 4 mps 749 mmHg 87%
    06:00 +28°C° 0.6 mm 4 mps 749 mmHg 88%
    07:00 +30°C° 0.1 mm 5 mps 749 mmHg 83%
    08:00 +32°C° 0.1 mm 5 mps 750 mmHg 78%
    09:00 +33°C° 0.1 mm 5 mps 751 mmHg 73%
    10:00 +34°C° 0.2 mm 5 mps 750 mmHg 67%
    11:00 +36°C° 0.2 mm 4 mps 750 mmHg 62%
    12:00 +37°C° 0.2 mm 4 mps 750 mmHg 57%
    13:00 +38°C° 0.5 mm 4 mps 749 mmHg 54%
    14:00 +38°C° 0.5 mm 3 mps 748 mmHg 51%
    15:00 +39°C° 0.5 mm 3 mps 747 mmHg 48%
    16:00 +38°C° 0.2 mm 4 mps 747 mmHg 54%
    17:00 +37°C° 0.2 mm 4 mps 747 mmHg 59%
    18:00 +36°C° 0.2 mm 5 mps 747 mmHg 65%
    19:00 +34°C° 1.7 mm 5 mps 748 mmHg 70%
    20:00 +33°C° 1.7 mm 5 mps 748 mmHg 76%
    21:00 +30°C° 1.7 mm 5 mps 749 mmHg 81%
    22:00 +30°C° 1.6 mm 4 mps 749 mmHg 82%
    23:00 +29°C° 1.6 mm 3 mps 750 mmHg 84%
    Show more